Cookie Consent by FreePrivacyPolicy.com
Facebook Twitter

Wetterstation Reutte

Messwerte
  Temperatur Wetter Niederschlag Luftdruck Wind
Mo, 20:00 Uhr 22° - 0 mm 1016.4 hPa 14 km/h N
Mo, 19:00 Uhr 23° - 0 mm 1015.8 hPa 22 km/h N
Mo, 18:00 Uhr 24° - 0 mm 1015.6 hPa 22 km/h N
Mo, 17:00 Uhr 24° - 0 mm 1015.6 hPa 25 km/h N
Mo, 16:00 Uhr 24° - 0 mm 1015.5 hPa 25 km/h N
Mo, 15:00 Uhr 23° - 0 mm 1016.2 hPa 22 km/h N
Mo, 14:00 Uhr 23° - 0 mm 1017.1 hPa 25 km/h N
Mo, 13:00 Uhr 22° - 0 mm 1017.9 hPa 25 km/h N
Mo, 12:00 Uhr 21° - 0 mm 1018.8 hPa 22 km/h N
Mo, 11:00 Uhr 20° - 0 mm 1019.3 hPa 14 km/h N
Mo, 10:00 Uhr 18° - 0 mm 1020.5 hPa 0 km/h N
Mo, 09:00 Uhr 16° - 0 mm 1021.6 hPa 4 km/h S
Mo, 08:00 Uhr 13° - 0 mm 1023.2 hPa 4 km/h S
Mo, 07:00 Uhr 11° - 0 mm 1024 hPa 7 km/h S
Mo, 06:00 Uhr 9° - 0 mm 1024.7 hPa 4 km/h W
Mo, 05:00 Uhr 9° - 0 mm 1025 hPa 4 km/h S
Mo, 04:00 Uhr 9° - 0 mm 1025.4 hPa 4 km/h SW
Mo, 03:00 Uhr 10° - 0 mm 1025.8 hPa 7 km/h S
Mo, 02:00 Uhr 11° - 0 mm 1025.9 hPa 7 km/h S
Mo, 01:00 Uhr 9° - 0 mm 1026.7 hPa 0 km/h S

Alle Zeitangaben MESZ